Location: Sceptre
(50.8619°N, 109.2670°W)
Time: 08:37:53
(UTC+00:00)

BEESAT - Visible Passes

Search period start: 25 June 2022 00:00
Search period end: 05 July 2022 00:00
Orbit: 698 x 708 km, 98.6° (Epoch: 24 June)

Date Brightness Start Highest point End Pass type
(mag) Time Alt. Az. Time Alt. Az. Time Alt. Az.
25 Jun ? 04:21:40 10° N 04:26:21 57° WNW 04:31:01 10° SSW visible
25 Jun ? 06:01:55 10° NW 06:03:06 11° NW 06:04:17 10° WNW visible
26 Jun ? 05:05:06 10° N 05:09:03 26° WNW 05:13:00 10° WSW visible
27 Jun ? 05:49:16 10° NNW 05:51:30 13° NW 05:53:44 10° W visible
28 Jun ? 04:53:07 10° N 04:57:21 32° WNW 05:01:34 10° SW visible
29 Jun ? 05:36:58 10° NNW 05:39:53 16° NW 05:42:46 10° W visible
30 Jun ? 04:41:11 10° N 04:45:38 40° WNW 04:50:04 10° SW visible
01 Jul ? 05:24:49 10° NNW 05:28:13 20° WNW 05:31:37 10° WSW visible
02 Jul ? 04:29:16 10° N 04:33:53 50° WNW 04:38:29 10° SW visible
03 Jul ? 05:12:45 10° N 05:16:33 24° WNW 05:20:19 10° WSW visible
04 Jul ? 04:17:23 10° N 04:22:07 64° WNW 04:26:50 10° SSW visible
04 Jul ? 05:57:10 10° NNW 05:58:57 12° NW 06:00:45 10° WNW visible
